Погода в Бурштыне

Украина / Ивано-Франковская область     49°15′44″N   24°37′40″E
темп.,
°C
ветер,
м/с
пор.,
м/с
влажн.,
%
обл.,
%
осадки,
мм/ч
давл.,
гПа
погр.,
м
19 сентября, вс
вс1900:00+12з6129187 1.4 1010744
03:00+12з51288100 1.8 1009709
06:00+8сз71393100 2.4 1010786
09:00+7зсз51092100 3.6 10101170
12:00+7з71192100 0.3 10121187
15:00+7зсз61191100 0.7 10121181
18:00+7зсз71390100 0.3 10121173
21:00+7зсз71391100 0.5 10131142
20 сентября, пн
пн2000:00+6зсз61193100 0.3 1013924
03:00+6зсз61094100 0.4 1014882
06:00+6зсз6994100 0.1 1014942
09:00+6зсз5994100 0.4 1015961
12:00+6зсз5891100 0.1 10161025
15:00+7зсз5987100 0.3 1016734
18:00+6зсз51086100 0.1 1017800
21:00+6зсз41090100 0.3 1018704
21 сентября, вт
вт2100:00+6сз51186100 0.3 1020815
03:00+5сз61187100 0.3 1021796
06:00+5зсз51185100 0.0 1021715
09:00+6зсз51282100 0.0 1022828
12:00+8зсз6116889 0.0 10231105
15:00+10сз61165100 0.1 10221482
18:00+9сз61266100 0.0 10231236
21:00+8сз3977100 0.0 1024699
22 сентября, ср
ср2200:00+7зсз4976100 0.1 1025600
03:00+7зсз4876100 0.1 1024446
06:00+6зсз4981100 0.0 1023322
09:00+8сз5978100 0.1 1022579
12:00+10сз696796 0.2 10211137
15:00+12сз6856100 0.3 10201720
18:00+10ссз6969100 0.3 10201055
21:00+7сз396889 0.3 1020236
23 сентября, чт
чт2300:00+6зсз387697 0.0 1020203
03:00+7зсз4877100 0.0 1019299
06:00+5зсз398399 0.0 1018285
09:00+7сз5986100 0.1 1018413
12:00+9зсз4880100 0.1 1017780
15:00+11з787499 0.1 1016911
18:00+10з4974100 0.1 1016475
21:00+8юз3980100 0.1 1015239